Tracking 19854 objects as of 22-Sep-2019
HD Live streaming from Space Station
objects crossing your sky now

COSMOS 1375 DEB

Track COSMOS 1375 DEB now!
10-day predictions


NORAD ID: 16206
Int'l Code: 1982-055H
Perigee: 980.1 km
Apogee: 1,009.8 km
Inclination: 65.8 °
Period: 104.9 minutes
Semi major axis: 7365 km
RCS: 0.4888 m2 (medium)
Launch date: June 6, 1982
Source: Commonwealth of Independent States (former USSR) (CIS)
Launch site: PLESETSK MISSILE AND SPACE COMPLEX (PKMTR)

Note: This is SATELLITE DEBRIS
aabbcc
Your satellite tracking list
Your tracking list is empty




NASA's NSSDC Master Catalog

Two Line Element Set (TLE):
1 16206U 82055H   19264.16412911 -.00000024  00000-0  60526-4 0  9992
2 16206  65.8344 147.1716 0020179 197.2066 322.7384 13.73273077868678
Source of the keplerian elements: AFSPC